Grand Prairie, TX

6:30 AM CDT on April 25, 2017 (GMT -0500)
Grand Prairie Municipal

Weather History for KGPM - February, 2014

Change the Weather History Date:

Thursday, February 6, 2014

  Actual Average (KRBD) Record (KRBD)
Temperature  
Mean Temperature 20 °F -  
Max Temperature 23 °F 55 °F 79 °F (2017)
Min Temperature 17 °F 37 °F 17 °F (2014)
Degree Days  
Heating Degree Days 45    
Moisture  
Dew Point 14 °F    
Average Humidity 74    
Maximum Humidity 80    
Minimum Humidity 63    
Precipitation  
Precipitation 0.00 in - - ()
Sea Level Pressure  
Sea Level Pressure 30.52 in    
Wind  
Wind Speed 12 mph (North)    
Max Wind Speed 18 mph    
Max Gust Speed 25 mph    
Visibility 9 miles    
Events Snow    
Averages and records for this station are not official NWS values.
T = Trace of Precipitation, MM = Missing Value Source: NWS Daily Summary

Daily Weather History Graph

Daily Weather History Graph

Search for Another Location

Airport or City:

Trip Planner

Search our weather history database for the weather conditions in past years. The results will help you decide how hot, cold, wet, or windy it might be!

Date:

Astronomy

Feb. 06, 2014 Rise Set
Actual Time 7:19 AM CST 6:05 PM CST
Civil Twilight 6:53 AM CST 6:31 PM CST
Nautical Twilight 6:24 AM CST 7:00 PM CST
Astronomical Twilight 5:55 AM CST 7:29 PM CST
Moon 11:39 AM CST (2/6) 12:36 AM CST (2/6)
Length of Visible Light 11h 37m
Length of Day
10h 46m
Waxing Crescent, 49% of the Moon is Illuminated
Feb 6
Waxing Crescent
Feb 6
First Quarter
Feb 14
Full
Feb 22
Last Quarter
Mar 1
New

Hourly Weather History & Observations

Time (CST) Temp. Windchill Dew Point Humidity Pressure Visibility Wind Dir Wind Speed Gust Speed Precip Events Conditions
12:15 AM 23.0 °F 10.6 °F 14.0 °F 68% 30.54 in 10.0 mi North 13.8 mph - N/A   Clear
12:35 AM 23.0 °F 11.1 °F 14.0 °F 68% 30.54 in 10.0 mi North 12.7 mph 20.7 mph N/A   Clear
12:55 AM 21.2 °F 7.3 °F 12.2 °F 68% 30.54 in 10.0 mi North 16.1 mph 20.7 mph N/A   Clear
1:15 AM 21.2 °F 8.3 °F 12.2 °F 68% 30.54 in 10.0 mi North 13.8 mph 19.6 mph N/A   Clear
1:35 AM 21.2 °F 8.9 °F 12.2 °F 68% 30.55 in 10.0 mi North 12.7 mph 17.3 mph N/A   Scattered Clouds
1:55 AM 21.2 °F 10.9 °F 12.2 °F 68% 30.56 in 10.0 mi North 9.2 mph - N/A   Scattered Clouds
2:15 AM 21.2 °F 10.9 °F 12.2 °F 68% 30.56 in 10.0 mi North 9.2 mph 17.3 mph N/A   Scattered Clouds
2:35 AM 21.2 °F 8.9 °F 12.2 °F 68% 30.55 in 10.0 mi North 12.7 mph 20.7 mph N/A   Mostly Cloudy
2:55 AM 21.2 °F 7.3 °F 12.2 °F 68% 30.54 in 10.0 mi North 16.1 mph - N/A   Mostly Cloudy
3:15 AM 21.2 °F 9.5 °F 10.4 °F 63% 30.56 in 10.0 mi North 11.5 mph 16.1 mph N/A   Mostly Cloudy
3:35 AM 19.4 °F 9.5 °F 10.4 °F 68% 30.58 in 10.0 mi NNW 8.1 mph - N/A   Mostly Cloudy
3:55 AM 19.4 °F 5.5 °F 10.4 °F 68% 30.56 in 10.0 mi North 15.0 mph 19.6 mph N/A   Scattered Clouds
4:15 AM 19.4 °F 4.5 °F 10.4 °F 68% 30.56 in 10.0 mi North 17.3 mph - N/A   Clear
4:35 AM 19.4 °F 5.0 °F 10.4 °F 68% 30.56 in 10.0 mi North 16.1 mph 20.7 mph N/A   Clear
4:55 AM 19.4 °F 5.5 °F 10.4 °F 68% 30.55 in 10.0 mi North 15.0 mph 25.3 mph N/A   Clear
5:15 AM 19.4 °F 7.2 °F 10.4 °F 68% 30.55 in 10.0 mi North 11.5 mph - N/A   Clear
5:35 AM 19.4 °F 6.6 °F 10.4 °F 68% 30.56 in 10.0 mi North 12.7 mph 18.4 mph N/A   Mostly Cloudy
5:55 AM 19.4 °F 4.1 °F 10.4 °F 68% 30.55 in 10.0 mi North 18.4 mph 23.0 mph N/A   Overcast
7:50 AM 17.6 °F 4.3 °F 10.4 °F 73% 30.58 in 10.0 mi North 12.7 mph - N/A   Mostly Cloudy
8:15 AM 17.6 °F 4.3 °F 12.2 °F 79% 30.59 in 3.0 mi North 12.7 mph - N/A Snow Light Snow
8:50 AM 17.6 °F 4.3 °F 12.2 °F 79% 30.60 in - North 12.7 mph - N/A Snow Light Snow
9:50 AM 17.6 °F 5.7 °F 12.2 °F 79% 30.61 in 7.0 mi North 10.4 mph 17.3 mph N/A Snow Light Snow
10:50 AM 17.6 °F 4.3 °F 12.2 °F 79% 30.61 in 4.0 mi North 12.7 mph - N/A Snow Snow
11:50 AM 19.4 °F 6.6 °F 14.0 °F 80% 30.56 in 5.0 mi North 12.7 mph - N/A Snow Light Snow
12:50 PM 21.2 °F 8.9 °F 15.8 °F 80% 30.53 in 5.0 mi North 12.7 mph - N/A Snow Light Snow
1:50 PM 21.2 °F 11.7 °F 15.8 °F 80% 30.51 in 7.0 mi North 8.1 mph - N/A Snow Light Snow
2:50 PM 23.0 °F 13.1 °F 17.6 °F 80% 30.49 in 10.0 mi North 9.2 mph - N/A   Mostly Cloudy
3:50 PM 23.0 °F 13.1 °F 17.6 °F 80% 30.48 in 10.0 mi North 9.2 mph - N/A   Mostly Cloudy
4:50 PM 23.0 °F 13.1 °F 17.6 °F 80% 30.47 in 10.0 mi North 9.2 mph - N/A   Overcast
5:50 PM 23.0 °F 13.1 °F 17.6 °F 80% 30.46 in 10.0 mi North 9.2 mph - N/A   Overcast
8:15 PM 23.0 °F 13.9 °F 17.6 °F 80% 30.47 in 10.0 mi North 8.1 mph - N/A   Mostly Cloudy
8:35 PM 23.0 °F 13.9 °F 17.6 °F 80% 30.47 in 10.0 mi NNE 8.1 mph - N/A   Mostly Cloudy
8:55 PM 23.0 °F 14.7 °F 17.6 °F 80% 30.47 in 10.0 mi NNE 6.9 mph - N/A   Mostly Cloudy
9:15 PM 23.0 °F 14.7 °F 17.6 °F 80% 30.47 in 10.0 mi North 6.9 mph - N/A   Mostly Cloudy
9:35 PM 23.0 °F 14.7 °F 17.6 °F 80% 30.46 in 10.0 mi NNE 6.9 mph - N/A   Mostly Cloudy
9:55 PM 23.0 °F 13.9 °F 17.6 °F 80% 30.46 in 10.0 mi NNE 8.1 mph - N/A   Mostly Cloudy
10:15 PM 23.0 °F 14.7 °F 17.6 °F 80% 30.47 in 10.0 mi NNE 6.9 mph - N/A   Overcast
10:35 PM 23.0 °F 14.7 °F 17.6 °F 80% 30.46 in 10.0 mi NNE 6.9 mph - N/A   Overcast
10:55 PM 23.0 °F 15.8 °F 17.6 °F 80% 30.46 in 10.0 mi NNE 5.8 mph - N/A   Overcast
11:15 PM 23.0 °F 14.7 °F 17.6 °F 80% 30.44 in 10.0 mi NNE 6.9 mph - N/A   Overcast
11:35 PM 23.0 °F 14.7 °F 17.6 °F 80% 30.46 in 10.0 mi North 6.9 mph - N/A   Overcast
11:55 PM 23.0 °F 14.7 °F 17.6 °F 80% 30.44 in 10.0 mi North 6.9 mph - N/A   Overcast